Flag for South Africa Weather past 2 weeks in Durban, South Africa

Now
66 °F

Passing clouds.


Feels Like: 66 °F
Forecast: 67 / 74 °F
Wind: 3 mph from South

Location: King Shaka International Airport

Current Time: Mar 27, 2015 at 6:17:52 AM

Latest Report: Mar 27, 2015 at 5:00 AM


Visibility: N/A

Pressure: 30.01 "Hg

Humidity: 88%

Dew point: 63 °F

Location of DurbanLocation

Historic Weather in Durban — Graph

°F

Durban temperature yesterday

Maximum temperature yesterday: 81 °F (at 10:00 AM)
Minimum temperature yesterday: 66 °F (at 8:00 PM)
Average temperature yesterday: 75 °F

Past Weeks' High & Low Weather Summary

 TemperatureHumidityPressure
High88 °F (Mar 15, 11:00 AM)94% (Mar 13, 1:00 AM)30.09 "Hg (Mar 13, 1:00 AM)
Low66 °F (Mar 13, 4:00 AM)49% (Mar 19, 1:00 PM)29.74 "Hg (Mar 19, 5:00 AM)
Average75 °F80%29.96 "Hg
* Reported Mar 12 4:00 AM — Mar 27 4:00 AM, Durban, Weather by CustomWeather, © 2015

Note: Actual official high and low records may vary slightly from our data, if they occured in-between our weather recording intervals... More about our weather records

Advertising

Durban weather history for previous 24 hours

 ConditionsComfort  
Time TempWeatherWind HumidityBarometerVisibility
4:00 AM
Fri, Mar 27
66 °FClear.1 mph88%30.01 "Hg10 mi
3:00 AM66 °FClear.2 mph88%29.98 "Hg10 mi
2:00 AM66 °FClear.2 mph94%29.98 "Hg10 mi
1:00 AM70 °FPassing clouds.3 mph83%30.01 "HgN/A
12:00 AM70 °FLight rain. Passing clouds.6 mph83%30.01 "HgN/A
11:00 PM
Thu, Mar 26
68 °FLight rain. Passing clouds.2 mph88%30.01 "HgN/A
10:00 PM68 °FLight rain. Passing clouds.7 mph83%29.98 "HgN/A
9:00 PM66 °FClear.7 mph83%29.98 "Hg10 mi
8:00 PM66 °FThunderstorms. Passing clouds.6 mph88%29.95 "HgN/A
7:00 PM77 °FPartly cloudy.12 mph79%29.92 "HgN/A
6:00 PM77 °FClear.3 mph79%29.89 "Hg10 mi
5:00 PM81 °FClear.2 mph70%29.83 "Hg10 mi
4:00 PM81 °FPassing clouds.9 mph70%29.86 "HgN/A
3:00 PM81 °FPassing clouds.15 mph74%29.86 "HgN/A
2:00 PM79 °FPassing clouds.12 mph79%29.86 "HgN/A
1:00 PM79 °FPassing clouds.17 mph84%29.86 "HgN/A
12:00 PM81 °FSunny.8 mph74%29.86 "Hg10 mi
11:00 AM81 °FSunny.2 mph74%29.86 "Hg10 mi
10:00 AM81 °FSunny.1 mph74%29.86 "Hg10 mi
9:00 AM79 °FPassing clouds.3 mph74%29.86 "HgN/A
8:00 AM79 °FClear.2 mph79%29.86 "Hg5 mi
7:00 AM72 °FClear.1 mph94%29.86 "Hg5 mi
6:00 AM70 °FClear.1 mph94%29.86 "Hg4 mi
Weather by CustomWeather, © 2015

See weather overviewHow to use our weather pages